| time (UTC) | temp F | wind direction | speed MPH | gust MPH | rain 1hr in | rain 24hr in | rain mn in | humidity % | barometer mb |
| 20260505153019 | 75 | 207 | 1.0 | 6.0 | 0.00 | 0.00 | 0.00 | 81 | 1006.3 |
| 20260505151519 | 74 | 207 | 2.0 | 6.0 | 0.00 | 0.00 | 0.00 | 82 | 1006.1 |
| 20260505124502 | 71 | 207 | 0.0 | 3.0 | 0.00 | 0.00 | 0.00 | 88 | 1005.6 |
| 20260505123001 | 71 | 207 | 0.0 | 3.0 | 0.00 | 0.00 | 0.00 | 88 | 1005.8 |
| 20260505121600 | 71 | 207 | 0.0 | 4.0 | 0.00 | 0.00 | 0.00 | 88 | 1005.8 |
| 20260505120121 | 71 | 207 | 1.0 | 4.0 | 0.00 | 0.00 | 0.00 | 88 | 1005.7 |
| 20260505114602 | 70 | 207 | 1.0 | 4.0 | 0.00 | 0.00 | 0.00 | 88 | 1005.7 |
| 20260505113106 | 70 | 207 | 1.0 | 4.0 | 0.00 | 0.00 | 0.00 | 88 | 1005.3 |
| 20260505111558 | 70 | 207 | 1.0 | 6.0 | 0.00 | 0.00 | 0.00 | 88 | 1005.4 |
| 20260505110116 | 70 | 207 | 0.0 | 5.0 | 0.00 | 0.00 | 0.00 | 88 | 1005.3 |
| 20260505101550 | 70 | 207 | 1.0 | 4.0 | 0.00 | 0.00 | 0.00 | 87 | 1005.6 |
| 20260505100049 | 70 | 207 | 1.0 | 5.0 | 0.00 | 0.00 | 0.00 | 86 | 1005.8 |
| 20260505094550 | 70 | 207 | 0.0 | 4.0 | 0.00 | 0.00 | 0.00 | 86 | 1005.7 |
| 20260505093049 | 70 | 207 | 2.0 | 5.0 | 0.00 | 0.00 | 0.00 | 86 | 1005.4 |
| 20260505091548 | 70 | 207 | 1.0 | 5.0 | 0.00 | 0.00 | 0.00 | 86 | 1005.3 |
| 20260505090046 | 70 | 207 | 1.0 | 5.0 | 0.00 | 0.00 | 0.00 | 85 | 1005.5 |
| 20260505084545 | 71 | 207 | 0.0 | 5.0 | 0.00 | 0.00 | 0.00 | 85 | 1005.5 |
| 20260505083044 | 71 | 207 | 1.0 | 5.0 | 0.00 | 0.00 | 0.00 | 85 | 1005.7 |
| 20260505081550 | 70 | 207 | 1.0 | 6.0 | 0.00 | 0.00 | 0.00 | 86 | 1005.8 |
| 20260505080044 | 70 | 207 | 1.0 | 5.0 | 0.00 | 0.00 | 0.00 | 86 | 1005.8 |
| 20260505074539 | 70 | 207 | 1.0 | 6.0 | 0.00 | 0.00 | 0.00 | 86 | 1006.1 |
| 20260505073045 | 70 | 207 | 0.0 | 4.0 | 0.00 | 0.00 | 0.00 | 86 | 1006.4 |
| 20260505071548 | 70 | 207 | 0.0 | 4.0 | 0.00 | 0.00 | 0.00 | 86 | 1006.5 |
| 20260505070034 | 70 | 207 | 0.0 | 3.0 | 0.00 | 0.00 | 0.00 | 86 | 1006.7 |
| 20260505064531 | 70 | 207 | 0.0 | 1.0 | 0.00 | 0.00 | 0.00 | 85 | 1007.0 |
| 20260505063030 | 70 | 207 | 0.0 | 3.0 | 0.00 | 0.00 | 0.00 | 85 | 1007.1 |
| 20260505061532 | 70 | 207 | 0.0 | 1.0 | 0.00 | 0.00 | 0.00 | 84 | 1007.1 |
| 20260505060027 | 71 | 207 | 0.0 | 2.0 | 0.00 | 0.00 | 0.00 | 83 | 1007.1 |
| 20260505054533 | 71 | 207 | 0.0 | 2.0 | 0.00 | 0.00 | 0.00 | 82 | 1007.4 |
| 20260505053032 | 71 | 207 | 0.0 | 2.0 | 0.00 | 0.00 | 0.00 | 82 | 1007.3 |
| 20260505051533 | 72 | 207 | 0.0 | 2.0 | 0.00 | 0.00 | 0.00 | 81 | 1007.3 |
| 20260505041518 | 72 | 207 | 0.0 | 2.0 | 0.00 | 0.00 | 0.00 | 79 | 1007.4 |
| 20260505040032 | 72 | 207 | 0.0 | 2.0 | 0.00 | 0.00 | 0.00 | 79 | 1007.3 |
| 20260505034519 | 73 | 207 | 0.0 | 2.0 | 0.00 | 0.00 | 0.00 | 78 | 1007.5 |
| 20260505033019 | 73 | 207 | 0.0 | 2.0 | 0.00 | 0.00 | 0.00 | 77 | 1007.4 |
| 20260505031515 | 73 | 207 | 0.0 | 3.0 | 0.00 | 0.00 | 0.00 | 77 | 1007.4 |
| 20260505030024 | 73 | 207 | 0.0 | 3.0 | 0.00 | 0.00 | 0.00 | 76 | 1007.5 |
| 20260505024515 | 73 | 207 | 0.0 | 2.0 | 0.00 | 0.00 | 0.00 | 76 | 1007.1 |
| 20260505023018 | 73 | 207 | 0.0 | 4.0 | 0.00 | 0.00 | 0.00 | 75 | 1007.2 |
| 20260505021513 | 74 | 207 | 0.0 | 4.0 | 0.00 | 0.00 | 0.00 | 75 | 1007.0 |
| 20260505020013 | 74 | 207 | 0.0 | 3.0 | 0.00 | 0.00 | 0.00 | 74 | 1007.1 |
| 20260505014512 | 74 | 207 | 0.0 | 1.0 | 0.00 | 0.00 | 0.00 | 73 | 1007.2 |
| 20260505013012 | 75 | 207 | 0.0 | 1.0 | 0.00 | 0.00 | 0.00 | 71 | 1007.1 |
| 20260505011512 | 75 | 207 | 0.0 | 2.0 | 0.00 | 0.00 | 0.00 | 70 | 1007.0 |
| 20260505010010 | 76 | 207 | 0.0 | 4.0 | 0.00 | 0.00 | 0.00 | 69 | 1007.2 |
| 20260505004510 | 76 | 207 | 0.0 | 3.0 | 0.00 | 0.00 | 0.00 | 68 | 1007.1 |
| 20260505003008 | 77 | 207 | 0.0 | 3.0 | 0.00 | 0.00 | 0.00 | 67 | 1007.1 |
| 20260505001507 | 77 | 207 | 0.0 | 4.0 | 0.00 | 0.00 | 0.00 | 66 | 1007.1 |
| 20260505000005 | 78 | 207 | 0.0 | 4.0 | 0.00 | 0.00 | 0.00 | 65 | 1007.3 |
| 20260504234507 | 78 | 207 | 0.0 | 4.0 | 0.00 | 0.00 | 0.00 | 63 | 1007.3 |
| 20260504233007 | 79 | 207 | 0.0 | 5.0 | 0.00 | 0.00 | 0.00 | 62 | 1007.3 |
| 20260504231600 | 79 | 207 | 1.0 | 5.0 | 0.00 | 0.00 | 0.00 | 61 | 1007.6 |
| 20260504230100 | 80 | 207 | 0.0 | 5.0 | 0.00 | 0.00 | 0.00 | 61 | 1007.8 |
| 20260504224601 | 80 | 207 | 2.0 | 6.0 | 0.00 | 0.00 | 0.00 | 59 | 1007.8 |
| 20260504223057 | 80 | 207 | 1.0 | 6.0 | 0.00 | 0.00 | 0.00 | 59 | 1007.9 |
| 20260504221556 | 81 | 207 | 2.0 | 5.0 | 0.00 | 0.00 | 0.00 | 58 | 1008.1 |
| 20260504220112 | 81 | 207 | 0.0 | 5.0 | 0.00 | 0.00 | 0.00 | 57 | 1008.1 |
| 20260504214556 | 81 | 207 | 1.0 | 13.0 | 0.00 | 0.00 | 0.00 | 56 | 1008.4 |
| 20260504213058 | 81 | 207 | 0.0 | 4.0 | 0.00 | 0.00 | 0.00 | 55 | 1008.3 |
| 20260504211553 | 81 | 207 | 0.0 | 6.0 | 0.00 | 0.00 | 0.00 | 54 | 1008.8 |
| 20260504210047 | 81 | 207 | 1.0 | 11.0 | 0.00 | 0.00 | 0.00 | 54 | 1009.0 |
| 20260504204545 | 81 | 207 | 1.0 | 6.0 | 0.00 | 0.00 | 0.00 | 54 | 1009.5 |
| 20260504203042 | 80 | 207 | 0.0 | 5.0 | 0.00 | 0.00 | 0.00 | 54 | 1010.0 |
| 20260504201539 | 81 | 207 | 0.0 | 4.0 | 0.00 | 0.00 | 0.00 | 52 | 1010.4 |
| 20260504200043 | 80 | 207 | 0.0 | 7.0 | 0.00 | 0.00 | 0.00 | 52 | 1010.4 |
| 20260504194541 | 81 | 207 | 0.0 | 4.0 | 0.00 | 0.00 | 0.00 | 50 | 1010.6 |
| 20260504193033 | 80 | 207 | 1.0 | 9.0 | 0.00 | 0.00 | 0.00 | 51 | 1010.9 |
| 20260504191548 | 80 | 207 | 0.0 | 9.0 | 0.00 | 0.00 | 0.00 | 52 | 1011.2 |
| 20260504190031 | 80 | 207 | 1.0 | 6.0 | 0.00 | 0.00 | 0.00 | 50 | 1011.5 |
| 20260504184528 | 80 | 207 | 0.0 | 6.0 | 0.00 | 0.00 | 0.00 | 51 | 1011.6 |
| 20260504183037 | 79 | 207 | 1.0 | 6.0 | 0.00 | 0.00 | 0.00 | 50 | 1011.7 |
| 20260504181526 | 78 | 207 | 1.0 | 7.0 | 0.00 | 0.00 | 0.00 | 51 | 1012.1 |
| 20260504180021 | 79 | 207 | 1.0 | 5.0 | 0.00 | 0.00 | 0.00 | 50 | 1012.3 |
| 20260504174521 | 78 | 207 | 0.0 | 4.0 | 0.00 | 0.00 | 0.00 | 51 | 1012.6 |
| 20260504173015 | 78 | 207 | 0.0 | 4.0 | 0.00 | 0.00 | 0.00 | 52 | 1012.8 |
| 20260504171512 | 77 | 207 | 1.0 | 4.0 | 0.00 | 0.00 | 0.00 | 52 | 1013.1 |